Weather History for Wrangell, AK

Change the Weather History Date:

Monday, January 6, 2014

  Actual Average Record
Temperature  
Mean Temperature 40 °F -  
Max Temperature 42 °F 31 °F 62 °F (1958)
Min Temperature 37 °F 22 °F 1 °F (1966)
Degree Days  
Heating Degree Days 26    
Moisture  
Dew Point 34 °F    
Average Humidity 80    
Maximum Humidity 87    
Minimum Humidity 65    
Precipitation  
Precipitation 0.01 in - - ()
Sea Level Pressure  
Sea Level Pressure 30.04 in    
Wind  
Wind Speed 13 mph (ESE)    
Max Wind Speed 18 mph    
Max Gust Speed 26 mph    
Visibility 10 miles    
Events      
Averages and records for this station are not official NWS values.
T = Trace of Precipitation, MM = Missing Value Source: NWS Daily Summary

Daily Weather History Graph

Daily Weather History Graph

Search for Another Location

Airport:

Trip Planner

Search our weather history database for the weather conditions in past years. The results will help you decide how hot, cold, wet, or windy it might be!

Date:

Astronomy

Jan. 06, 2014 Rise Set
Actual Time 8:21 AM AKST 3:29 PM AKST
Civil Twilight 7:34 AM AKST 4:16 PM AKST
Nautical Twilight 6:45 AM AKST 5:05 PM AKST
Astronomical Twilight 5:59 AM AKST 5:51 PM AKST
Moon 10:24 AM AKST (1/6) 11:34 PM AKST (1/6)
Length of Visible Light 8h 42m
Length of Day
7h 08m
Waxing Crescent, 36% of the Moon is Illuminated
Jan 6
Waxing Crescent
Jan 7
First Quarter
Jan 15
Full
Jan 23
Last Quarter
Jan 30
New

Hourly Weather History & Observations

Time (AKST) Temp. Windchill Dew Point Humidity Pressure Visibility Wind Dir Wind Speed Gust Speed Precip Events Conditions
12:16 AM 39.2 °F 29.8 °F 30.2 °F 70% 30.14 in 10.0 mi ESE 18.4 mph 25.3 mph N/A   Overcast
12:36 AM 39.2 °F 30.5 °F 30.2 °F 70% 30.15 in 10.0 mi ESE 16.1 mph 26.5 mph N/A   Overcast
12:56 AM 39.2 °F 30.5 °F 30.2 °F 70% 30.15 in 10.0 mi ESE 16.1 mph 20.7 mph N/A   Overcast
1:16 AM 39.2 °F 30.8 °F 30.2 °F 70% 30.15 in 9.0 mi SE 15.0 mph 26.5 mph N/A   Overcast
1:36 AM 39.2 °F 31.6 °F 30.2 °F 70% 30.16 in 10.0 mi SE 12.7 mph - N/A   Overcast
1:56 AM 39.2 °F 30.8 °F 32.0 °F 75% 30.16 in 10.0 mi ESE 15.0 mph 21.9 mph N/A   Overcast
2:16 AM 39.2 °F 31.2 °F 33.8 °F 81% 30.15 in 10.0 mi ESE 13.8 mph 20.7 mph N/A   Overcast
2:36 AM 41.0 °F 35.8 °F 30.2 °F 65% 30.16 in 10.0 mi ESE 8.1 mph 18.4 mph N/A   Overcast
2:56 AM 39.2 °F 32.0 °F 32.0 °F 75% 30.16 in 10.0 mi East 11.5 mph - N/A   Overcast
3:16 AM 39.2 °F 30.5 °F 33.8 °F 81% 30.15 in 10.0 mi East 16.1 mph - N/A   Overcast
3:36 AM 39.2 °F 30.8 °F 33.8 °F 81% 30.14 in 10.0 mi East 15.0 mph 20.7 mph N/A   Overcast
3:56 AM 39.2 °F 30.8 °F 33.8 °F 81% 30.14 in 10.0 mi East 15.0 mph 20.7 mph N/A   Overcast
4:16 AM 39.2 °F 31.2 °F 33.8 °F 81% 30.14 in 10.0 mi East 13.8 mph - N/A   Overcast
4:36 AM 39.2 °F 30.8 °F 33.8 °F 81% 30.13 in 10.0 mi East 15.0 mph - N/A   Overcast
4:56 AM 39.2 °F 32.5 °F 33.8 °F 81% 30.13 in 10.0 mi East 10.4 mph 16.1 mph N/A   Overcast
5:16 AM 39.2 °F 31.6 °F 33.8 °F 81% 30.12 in 10.0 mi ENE 12.7 mph 17.3 mph N/A   Overcast
5:36 AM 39.2 °F 32.5 °F 33.8 °F 81% 30.12 in 10.0 mi East 10.4 mph 17.3 mph N/A   Overcast
5:56 AM 39.2 °F 31.6 °F 33.8 °F 81% 30.11 in 10.0 mi East 12.7 mph - N/A   Overcast
6:16 AM 39.2 °F 31.6 °F 33.8 °F 81% 30.11 in 10.0 mi East 12.7 mph - N/A   Overcast
6:36 AM 37.4 °F 28.2 °F 33.8 °F 87% 30.10 in 10.0 mi East 16.1 mph - N/A   Overcast
6:56 AM 37.4 °F 28.9 °F 33.8 °F 87% 30.10 in 10.0 mi East 13.8 mph - N/A   Overcast
7:16 AM 39.2 °F 32.5 °F 33.8 °F 81% 30.10 in 10.0 mi East 10.4 mph - N/A   Overcast
7:36 AM 39.2 °F 32.0 °F 33.8 °F 81% 30.10 in 10.0 mi East 11.5 mph - N/A   Overcast
7:56 AM 39.2 °F 32.5 °F 33.8 °F 81% 30.10 in 10.0 mi East 10.4 mph 16.1 mph N/A   Overcast
8:16 AM 39.2 °F 33.0 °F 33.8 °F 81% 30.10 in 10.0 mi East 9.2 mph - N/A   Overcast
8:36 AM 39.2 °F 32.0 °F 33.8 °F 81% 30.09 in 10.0 mi East 11.5 mph - N/A   Overcast
8:56 AM 39.2 °F 32.5 °F 33.8 °F 81% 30.09 in 10.0 mi ESE 10.4 mph 16.1 mph N/A   Overcast
9:16 AM 39.2 °F 34.2 °F 33.8 °F 81% 30.09 in 10.0 mi ESE 6.9 mph - N/A   Overcast
9:36 AM 39.2 °F 33.6 °F 33.8 °F 81% 30.09 in 10.0 mi ESE 8.1 mph - N/A   Overcast
9:56 AM 39.2 °F 34.2 °F 33.8 °F 81% 30.09 in 10.0 mi East 6.9 mph - N/A   Overcast
10:16 AM 39.2 °F 32.0 °F 33.8 °F 81% 30.08 in 10.0 mi East 11.5 mph 16.1 mph N/A   Overcast
10:36 AM 39.2 °F 31.6 °F 33.8 °F 81% 30.06 in 10.0 mi East 12.7 mph - N/A   Overcast
10:56 AM 39.2 °F 32.5 °F 33.8 °F 81% 30.07 in 10.0 mi East 10.4 mph - N/A   Overcast
11:16 AM 39.2 °F 33.0 °F 33.8 °F 81% 30.06 in 10.0 mi ESE 9.2 mph - N/A   Overcast
11:36 AM 39.2 °F 35.0 °F 33.8 °F 81% 30.06 in 10.0 mi SSE 5.8 mph - N/A   Overcast
11:56 AM 39.2 °F 32.0 °F 33.8 °F 81% 30.04 in 10.0 mi East 11.5 mph 17.3 mph N/A   Overcast
12:16 PM 39.2 °F 32.5 °F 33.8 °F 81% 30.04 in 10.0 mi East 10.4 mph - N/A   Overcast
12:36 PM 39.2 °F 31.2 °F 35.6 °F 87% 30.02 in 10.0 mi East 13.8 mph 19.6 mph N/A   Overcast
12:56 PM 41.0 °F 34.7 °F 33.8 °F 76% 30.03 in 10.0 mi East 10.4 mph - N/A   Overcast
1:16 PM 42.8 °F 37.0 °F 33.8 °F 70% 30.02 in 10.0 mi ESE 10.4 mph - N/A   Overcast
1:36 PM 42.8 °F 36.6 °F 33.8 °F 70% 30.01 in 10.0 mi ESE 11.5 mph - N/A   Overcast
1:56 PM 41.0 °F 35.2 °F 35.6 °F 81% 30.02 in 10.0 mi SE 9.2 mph - N/A   Overcast
2:16 PM 39.2 °F 32.5 °F 35.6 °F 87% 30.01 in 10.0 mi East 10.4 mph - N/A   Overcast
2:36 PM 39.2 °F 31.6 °F 35.6 °F 87% 30.01 in 10.0 mi East 12.7 mph - N/A   Overcast
2:56 PM 39.2 °F 31.2 °F 35.6 °F 87% 29.99 in 10.0 mi East 13.8 mph - 0.01 in   Overcast
3:16 PM 39.2 °F 32.0 °F 35.6 °F 87% 29.99 in 10.0 mi East 11.5 mph - N/A   Overcast
3:36 PM 39.2 °F 32.0 °F 33.8 °F 81% 29.99 in 10.0 mi East 11.5 mph - N/A   Overcast
3:56 PM 39.2 °F 31.6 °F 33.8 °F 81% 29.98 in 10.0 mi East 12.7 mph - N/A   Overcast
4:16 PM 39.2 °F 32.0 °F 33.8 °F 81% 29.98 in 10.0 mi ESE 11.5 mph - N/A   Overcast
4:36 PM 39.2 °F 32.0 °F 33.8 °F 81% 29.98 in 10.0 mi ESE 11.5 mph - N/A   Overcast
4:56 PM 39.2 °F 32.0 °F 33.8 °F 81% 29.97 in 10.0 mi ESE 11.5 mph - N/A   Overcast
5:16 PM 39.2 °F 37.0 °F 33.8 °F 81% 29.98 in 10.0 mi SSE 3.5 mph - N/A   Overcast
5:36 PM 39.2 °F 32.5 °F 33.8 °F 81% 29.96 in 10.0 mi East 10.4 mph - N/A   Overcast
5:56 PM 39.2 °F 32.0 °F 33.8 °F 81% 29.95 in 10.0 mi ESE 11.5 mph - N/A   Overcast
6:16 PM 39.2 °F 30.5 °F 33.8 °F 81% 29.94 in 10.0 mi ESE 16.1 mph 19.6 mph N/A   Overcast
6:36 PM 39.2 °F 33.0 °F 33.8 °F 81% 29.95 in 10.0 mi ESE 9.2 mph - N/A   Overcast
6:56 PM 39.2 °F 30.5 °F 33.8 °F 81% 29.93 in 10.0 mi East 16.1 mph - N/A   Overcast
7:16 PM 39.2 °F 31.2 °F 33.8 °F 81% 29.94 in 10.0 mi East 13.8 mph - N/A   Overcast
7:36 PM 39.2 °F 33.6 °F 33.8 °F 81% 29.94 in 10.0 mi ESE 8.1 mph - N/A   Overcast
7:56 PM 39.2 °F 33.0 °F 33.8 °F 81% 29.94 in 10.0 mi East 9.2 mph - N/A   Overcast
8:16 PM 39.2 °F 32.0 °F 33.8 °F 81% 29.93 in 10.0 mi SE 11.5 mph - N/A   Overcast
8:36 PM 39.2 °F 33.0 °F 33.8 °F 81% 29.92 in 10.0 mi East 9.2 mph - N/A   Overcast
8:56 PM 39.2 °F 32.0 °F 33.8 °F 81% 29.92 in 10.0 mi ESE 11.5 mph - N/A   Mostly Cloudy
9:16 PM 39.2 °F 32.0 °F 33.8 °F 81% 29.92 in 10.0 mi ESE 11.5 mph - N/A   Mostly Cloudy
9:36 PM 39.2 °F 32.0 °F 33.8 °F 81% 29.91 in 10.0 mi ESE 11.5 mph - N/A   Mostly Cloudy
9:56 PM 39.2 °F 33.6 °F 33.8 °F 81% 29.91 in 10.0 mi East 8.1 mph - N/A   Mostly Cloudy
10:16 PM 39.2 °F 35.0 °F 32.0 °F 75% 29.91 in 10.0 mi ESE 5.8 mph - N/A   Mostly Cloudy
10:36 PM 39.2 °F 33.0 °F 33.8 °F 81% 29.91 in 10.0 mi East 9.2 mph - N/A   Mostly Cloudy
10:56 PM 39.2 °F 33.0 °F 33.8 °F 81% 29.91 in 10.0 mi East 9.2 mph - N/A   Mostly Cloudy
11:16 PM 39.2 °F 33.0 °F 33.8 °F 81% 29.91 in 10.0 mi ESE 9.2 mph - N/A   Clear
11:36 PM 39.2 °F 33.0 °F 32.0 °F 75% 29.92 in 10.0 mi SE 9.2 mph - N/A   Clear
11:56 PM 39.2 °F 32.0 °F 32.0 °F 75% 29.92 in 10.0 mi SSE 11.5 mph 19.6 mph N/A   Scattered Clouds